Location: Cahas Mountain Overlook
(37.0833°N, 80.1000°W)
Time: 11:35:36
(UTC-04:00)

Vanguard 1 Rocket - Pass Details

Date: 08 February 2026
Orbit: 653 x 4214 km, 34.3° (Epoch: 15 March)

Event Time Altitude Azimuth Distance (km) Brightness Sun altitude
Rises 18:35:03 0° 271° (W) 6,507 13.7 -8.9°
Reaches altitude 10° 18:38:39 10° 271° (W) 5,857 13.0 -9.6°
Maximum altitude 18:59:36 81° 188° (S) 4,103 10.6 -13.7°
Enters shadow 19:22:51 16° 106° (ESE) 6,577 11.2 -18.3°
